DateTime,F1_A11,F1_S11,BsB_S11,BsG_S11,BsR_S11,BbsB_S11,BbsG_S11,BbsR_S11,BaB_A11,BaG_A11,BaR_A11,T_S11,U_S11,P_S11,T1_A11
2016-10-28T00:00:00Z,0000388,21000608,,,,,,,,,,27.8,00.0,0648.6,34.7
2016-10-28T00:01:00Z,0000388,21000608,,,,,,,,,,27.7,00.0,0648.6,34.7
2016-10-28T00:02:00Z,0000388,21000608,,,,,,,,,,27.7,00.0,0648.6,34.7
2016-10-28T00:03:00Z,0000388,61000608,,,,,,,,,,27.7,00.0,0648.6,34.7
2016-10-28T00:04:00Z,0000388,41000608,0000.65,0000.61,-000.74,0000.19,0000.36,0000.01,-000.10,-000.06,-000.31,27.7,00.0,0649.5,34.7
2016-10-28T00:05:00Z,0000388,01000608,-000.15,-000.11,0000.03,-000.09,0000.10,0000.45,0000.16,0000.18,-000.07,27.8,00.0,0649.6,34.7
2016-10-28T00:06:00Z,0000388,01000608,-000.38,0000.60,-000.42,-000.18,0000.28,0000.02,0000.12,-000.00,0000.12,27.8,00.0,0649.6,34.7
2016-10-28T00:07:00Z,0000388,01000608,0000.48,0000.19,0000.01,0000.68,0000.02,0000.06,-000.12,-000.11,0000.11,27.8,00.0,0649.6,34.8
2016-10-28T00:08:00Z,0000388,01000608,-000.77,0000.21,-000.14,0000.06,0000.17,0000.28,0000.12,0000.05,0000.03,27.8,00.0,0649.6,34.8
2016-10-28T00:09:00Z,0000388,01000608,0000.56,-000.14,-000.49,0000.24,0000.42,0000.05,0000.02,0000.03,-000.09,27.8,00.0,0649.6,34.8
2016-10-28T00:10:00Z,0000388,01000608,0000.32,0000.86,-000.72,0000.31,-000.30,0000.14,0000.07,0000.02,-000.02,27.8,00.0,0649.6,34.8
2016-10-28T00:11:00Z,0000388,01000608,-000.59,0000.02,-000.10,-000.50,0000.30,-000.60,0000.03,0000.06,0000.20,27.8,00.0,0649.6,34.8
2016-10-28T00:12:00Z,0000388,01000608,-001.01,-000.34,0000.04,-000.09,-000.01,0000.38,0000.07,0000.01,0000.23,27.8,00.0,0649.6,34.8
2016-10-28T00:13:00Z,0000388,01000608,-000.99,0000.12,-000.37,-000.51,-000.29,0000.43,-000.00,0000.04,-000.41,27.8,00.0,0649.6,34.8
2016-10-28T00:14:00Z,0000388,01000608,-000.52,0000.13,0000.14,-000.00,-000.34,0000.00,-000.00,0000.17,0000.20,27.8,00.0,0649.6,34.8
2016-10-28T00:15:00Z,0000388,01000608,-000.46,0000.43,-000.06,-000.13,0000.23,0000.29,0000.05,-000.15,-000.14,27.7,00.0,0649.6,34.8
2016-10-28T00:16:00Z,0000388,01000608,0000.51,0000.75,0000.23,0000.12,-000.00,0000.42,0000.02,0000.15,0000.42,27.8,00.0,0649.5,34.8
2016-10-28T00:17:00Z,0000388,01000608,-001.05,0000.83,-000.36,0000.16,0000.54,0000.60,0000.08,0000.03,-000.42,27.8,00.0,0649.5,34.8
2016-10-28T00:18:00Z,0000388,01000608,0000.98,0001.05,-000.18,0000.03,0000.02,0000.30,-000.10,-000.16,0000.37,27.8,00.0,0649.5,34.8
2016-10-28T00:19:00Z,0000388,01000608,0000.93,-000.10,-000.43,0000.45,0000.57,0000.55,0000.22,0000.19,-000.25,27.8,00.0,0649.5,34.8
2016-10-28T00:20:00Z,0000388,01000608,-000.63,-000.48,0000.17,-000.11,0000.06,0000.15,0000.21,0000.16,0000.41,27.8,00.0,0649.5,34.8
2016-10-28T00:21:00Z,0000388,01000608,0000.28,-000.21,-000.39,-000.17,0000.42,-000.29,-000.16,-000.16,-000.52,27.8,00.0,0649.5,34.8
2016-10-28T00:22:00Z,0000388,01000608,-000.45,-000.10,-000.52,0000.37,0000.20,0000.23,0000.09,0000.19,0000.40,27.8,00.0,0649.6,34.8
2016-10-28T00:23:00Z,0000388,01000608,-000.74,0000.31,-000.49,0000.33,0000.19,0000.22,-000.05,-000.09,-000.20,27.8,00.0,0649.6,34.8
2016-10-28T00:24:00Z,0000388,01000608,-000.76,-000.17,0000.10,0000.18,0000.18,0000.32,-000.07,-000.03,0000.01,27.8,00.0,0649.6,34.8
2016-10-28T00:25:00Z,0000388,01000608,0000.64,0000.23,-000.20,0000.29,-000.03,0000.20,0000.15,0000.04,0000.23,27.8,00.0,0649.6,34.8
2016-10-28T00:26:00Z,0000388,01000608,0000.56,0000.98,-000.31,-000.17,-000.24,-000.31,-000.18,0000.11,-000.23,27.8,00.0,0649.5,34.8
2016-10-28T00:27:00Z,0000388,01000608,0000.13,0001.83,-000.22,-000.17,0000.42,0000.37,0000.12,-000.01,0000.22,27.8,00.0,0649.6,34.8
2016-10-28T00:28:00Z,0000388,01000608,-000.17,0000.42,0000.31,-000.17,-000.03,-000.11,0000.20,0000.03,0000.04,27.8,00.0,0649.6,34.8
2016-10-28T00:29:00Z,0000388,01000608,0000.57,-000.25,-000.86,0000.10,0000.11,-000.20,-000.13,0000.03,-000.05,27.8,00.0,0649.6,34.8
2016-10-28T00:30:00Z,0000388,01000608,-000.40,0000.29,-000.56,-000.09,-000.05,0000.36,0000.17,0000.01,-000.09,27.8,00.0,0649.6,34.8
2016-10-28T00:31:00Z,0000388,01000608,0000.31,0000.60,0000.28,0000.29,0000.44,0000.07,-000.10,-000.01,0000.20,27.8,00.0,0649.6,34.8
2016-10-28T00:32:00Z,0000388,01000608,-001.32,-000.25,-000.07,0000.28,0000.56,0000.57,0000.06,0000.03,-000.04,27.8,00.0,0649.6,34.8
2016-10-28T00:33:00Z,0000388,01000608,0000.52,-000.17,-000.73,-000.30,0000.28,-000.25,0000.05,-000.06,0000.11,27.8,00.0,0649.7,34.8
2016-10-28T00:34:00Z,0000388,01000608,0000.44,0000.04,-000.28,0000.50,0000.56,0000.20,0000.04,0000.16,-000.28,27.8,00.0,0649.7,34.8
2016-10-28T00:35:00Z,0000388,01000608,-000.50,-000.17,-000.27,0000.09,0000.27,-000.12,-000.08,0000.01,0000.27,27.9,00.0,0649.7,34.8
2016-10-28T00:36:00Z,0000388,01000608,-000.22,0000.43,0000.27,-000.07,0000.19,0000.15,0000.03,0000.04,-000.33,27.8,00.0,0649.7,34.8
2016-10-28T00:37:00Z,0000388,01000608,-000.53,-000.10,0000.33,-000.16,-000.15,0000.11,0000.21,0000.10,0000.20,27.9,00.0,0649.7,34.8
2016-10-28T00:38:00Z,0000388,01000608,0001.22,-000.26,-000.42,0000.18,0000.20,-000.40,-000.12,-000.24,-000.17,27.9,00.0,0649.7,34.8
2016-10-28T00:39:00Z,0000388,01000608,-000.32,0000.64,0000.18,0000.11,-000.47,0000.09,0000.07,0000.04,0000.02,27.8,00.0,0649.7,34.8
2016-10-28T00:40:00Z,0000388,01000608,-001.25,-000.41,-000.25,-000.26,0000.12,-000.07,-000.08,0000.06,0000.11,27.9,00.0,0649.6,34.8
2016-10-28T00:41:00Z,0000388,01000608,-000.45,0000.75,-000.15,0000.07,0000.23,0000.11,0000.21,0000.07,-000.16,27.9,00.0,0649.6,34.8
2016-10-28T00:42:00Z,0000388,01000608,0000.14,-000.20,-000.10,-000.20,-000.01,0000.04,0000.02,-000.10,0000.46,27.9,00.0,0649.6,34.8
2016-10-28T00:43:00Z,0000388,01000608,0000.53,0000.46,-000.04,-000.04,0000.11,0000.19,-000.05,0000.15,-000.18,27.9,00.0,0649.6,34.8
2016-10-28T00:44:00Z,0000388,01000608,-000.93,0000.06,0000.29,-000.14,-000.20,0000.28,-000.01,-000.00,-000.15,27.9,00.0,0649.6,34.8
2016-10-28T00:45:00Z,0000388,01000608,-000.32,0000.22,0000.01,0000.01,0000.28,0000.12,0000.09,-000.09,0000.27,27.9,00.0,0649.6,34.8
2016-10-28T00:46:00Z,0000388,01000608,-000.07,-000.03,-000.23,-000.40,0000.02,0000.31,0000.12,0000.30,0000.11,27.9,00.0,0649.6,34.8
2016-10-28T00:47:00Z,0000388,01000608,0000.02,0000.18,0000.21,0001.07,-000.05,0000.40,-000.01,0000.00,-000.28,27.9,00.0,0649.7,34.8
2016-10-28T00:48:00Z,0000388,01000608,0000.08,0000.06,-000.29,0000.34,0000.05,0000.20,0000.12,-000.12,0000.20,27.9,00.0,0649.7,34.8
2016-10-28T00:49:00Z,0000388,01000608,0000.13,-000.43,-000.25,0000.18,0000.18,-000.13,0000.15,0000.09,-000.10,27.9,00.0,0649.7,34.8
2016-10-28T00:50:00Z,0000388,01000608,-000.05,0000.05,0000.33,-000.12,0000.16,0000.26,0000.02,0000.18,0000.13,27.9,00.0,0649.8,34.7
2016-10-28T00:51:00Z,0000388,01000608,0000.64,-000.58,-000.53,0000.62,0000.23,0000.10,-000.00,-000.09,0000.35,27.9,00.0,0649.8,34.7
2016-10-28T00:52:00Z,0000388,01000608,0000.24,0000.00,-000.11,0000.14,0000.41,0000.22,-000.02,0000.05,-000.19,27.9,00.0,0649.8,34.7
2016-10-28T00:53:00Z,0000388,01000608,0000.44,-000.12,-000.50,0000.04,0000.01,0000.07,0000.15,0000.01,0000.18,27.8,00.0,0649.8,34.7
2016-10-28T00:54:00Z,0000388,01000608,0000.16,-000.34,0000.09,0000.10,-000.15,0000.36,-000.19,0000.04,-000.30,27.8,00.0,0649.8,34.7
2016-10-28T00:55:00Z,0000388,01000608,-000.00,0000.36,-000.58,-000.12,0000.09,0000.18,-000.09,0000.07,-000.13,27.8,00.0,0649.8,34.7
2016-10-28T00:56:00Z,0000388,01000608,0000.34,-000.15,-000.48,0000.06,0000.28,-000.17,0000.02,0000.03,0000.26,27.8,00.0,0649.9,34.7
2016-10-28T00:57:00Z,0000388,41000608,,,,,,,,,,27.8,00.0,0650.0,34.6
2016-10-28T00:58:00Z,0000388,61000608,,,,,,,,,,27.6,00.0,0648.8,34.6
2016-10-28T00:59:00Z,0000388,21000608,,,,,,,,,,27.6,00.0,0648.8,34.6
2016-10-28T01:00:00Z,0000388,21000608,,,,,,,,,,27.6,00.0,0648.8,34.6
2016-10-28T01:01:00Z,0000388,21000608,,,,,,,,,,27.6,00.0,0648.8,34.6
2016-10-28T01:02:00Z,0000388,21000608,,,,,,,,,,27.6,00.0,0648.8,34.6
2016-10-28T01:03:00Z,0000388,61000608,,,,,,,,,,27.6,00.0,0648.8,34.6
2016-10-28T01:04:00Z,0000388,41000608,-000.45,-000.57,-000.13,0000.10,-000.24,0000.79,-000.14,0000.01,0000.05,27.6,00.0,0649.7,34.6
2016-10-28T01:05:00Z,0000388,01000608,-000.08,-000.34,-000.04,0000.33,0000.38,0000.28,0000.03,-000.04,0000.24,27.5,00.0,0649.8,34.6
2016-10-28T01:06:00Z,0000388,01000608,-000.15,-000.07,0000.38,0000.14,0000.50,0000.40,-000.04,0000.07,0000.20,27.5,00.0,0649.8,34.6
2016-10-28T01:07:00Z,0000388,01000608,-000.32,0000.38,-000.33,0000.40,0000.03,-000.24,0000.26,0000.22,-000.40,27.4,00.0,0649.8,34.6
2016-10-28T01:08:00Z,0000388,01000608,0001.35,-000.32,0000.60,0000.40,0000.12,0000.26,0000.15,0000.21,0000.49,27.4,00.0,0649.8,34.6
2016-10-28T01:09:00Z,0000388,01000608,0000.69,0000.15,-000.08,-000.25,0000.54,0000.20,0000.01,-000.28,0000.04,27.4,00.0,0649.8,34.6
2016-10-28T01:10:00Z,0000388,01000608,-000.11,0000.22,0000.18,-000.13,0000.48,0000.41,-000.22,0000.03,-000.10,27.4,00.0,0649.8,34.6
2016-10-28T01:11:00Z,0000388,01000608,0000.52,-000.51,-000.40,-000.63,0000.18,0000.25,0000.38,0000.09,-000.08,27.4,00.0,0649.8,34.6
2016-10-28T01:12:00Z,0000388,01000608,-000.49,0000.05,-000.23,-000.55,0000.38,-000.04,0000.12,0000.20,0000.29,27.3,00.0,0649.8,34.6
2016-10-28T01:13:00Z,0000388,01000608,0000.47,-000.16,-000.50,0000.74,0000.70,0000.15,-000.16,0000.10,-000.01,27.3,00.0,0649.8,34.6
2016-10-28T01:14:00Z,0000388,01000608,-001.06,0000.47,0000.41,0000.11,0000.36,0000.27,0000.15,-000.06,0000.10,27.3,00.0,0649.8,34.6
2016-10-28T01:15:00Z,0000388,01000608,-000.44,0000.01,0000.07,-000.04,0000.06,0000.21,-000.12,-000.11,0000.04,27.2,00.0,0649.7,34.6
2016-10-28T01:16:00Z,0000388,01000608,0000.69,-000.54,-000.34,-000.22,0000.36,0000.25,0000.14,0000.05,-000.22,27.3,00.0,0649.7,34.7
2016-10-28T01:17:00Z,0000388,01000608,-000.03,-000.07,0000.18,-000.41,0000.29,0000.26,-000.15,0000.05,-000.19,27.3,00.0,0649.7,34.7
2016-10-28T01:18:00Z,0000388,01000608,0001.01,0000.06,0000.04,-000.29,-000.06,-000.23,0000.27,0000.16,0000.46,27.3,00.0,0649.7,34.7
2016-10-28T01:19:00Z,0000388,01000608,-000.59,0000.09,0000.00,-000.63,0000.19,0000.10,0000.06,0000.25,-000.10,27.4,00.0,0649.7,34.7
2016-10-28T01:20:00Z,0000388,01000608,0000.16,0000.33,-000.15,-000.49,0000.09,0000.06,0000.00,-000.20,0000.38,27.4,00.0,0649.8,34.7
2016-10-28T01:21:00Z,0000388,01000608,-000.53,0000.16,-000.20,0000.15,0000.61,0000.33,-000.07,0000.01,-000.06,27.4,00.0,0649.8,34.7
2016-10-28T01:22:00Z,0000388,01000608,-000.75,-000.54,-000.03,-000.24,0000.09,0000.01,0000.08,0000.12,-000.16,27.5,00.0,0649.8,34.7
2016-10-28T01:23:00Z,0000388,01000608,-000.23,0000.31,-000.21,-000.03,-000.33,-000.12,-000.02,-000.01,0000.12,27.5,00.0,0649.8,34.7
2016-10-28T01:24:00Z,0000388,01000608,0000.19,0000.04,0000.07,-000.45,0000.02,0000.44,0000.07,0000.12,0000.07,27.5,00.0,0649.8,34.7
2016-10-28T01:25:00Z,0000388,01000608,0000.02,0000.04,0000.37,0000.15,-000.14,-000.27,-000.16,-000.11,-000.11,27.5,00.0,0649.8,34.7
2016-10-28T01:26:00Z,0000388,01000608,0000.54,-000.12,0000.54,-000.01,-000.07,0000.27,0000.19,0000.11,0000.09,27.5,00.0,0649.8,34.7
2016-10-28T01:27:00Z,0000388,01000608,0000.15,-000.53,0000.18,-000.04,-000.33,0000.43,0000.15,0000.02,0000.09,27.5,00.0,0649.8,34.7
2016-10-28T01:28:00Z,0000388,01000608,-000.83,0000.52,-000.31,-000.49,0000.51,0000.12,-000.06,-000.08,-000.17,27.5,00.0,0649.8,34.7
2016-10-28T01:29:00Z,0000388,01000608,-000.03,-000.65,-000.11,0000.26,0000.28,-000.01,0000.08,-000.04,-000.09,27.5,00.0,0649.8,34.7
2016-10-28T01:30:00Z,0000388,01000608,-000.49,0000.14,0000.13,0000.08,-000.08,-000.03,-000.03,0000.10,0000.08,27.5,00.0,0649.8,34.7
2016-10-28T01:31:00Z,0000388,01000608,0000.14,0000.35,0000.21,0000.68,0000.30,0000.07,0000.01,0000.00,-000.29,27.4,00.0,0649.8,34.7
2016-10-28T01:32:00Z,0000388,01000608,-001.25,0000.58,-000.40,0001.01,0000.44,0000.11,0000.16,0000.01,0000.39,27.4,00.0,0649.8,34.7
2016-10-28T01:33:00Z,0000388,01000608,0000.37,0000.19,0000.16,0000.35,0000.66,0000.01,-000.20,0000.05,0000.04,27.4,00.0,0649.8,34.7
2016-10-28T01:34:00Z,0000388,01000608,-000.87,0000.29,0000.37,0000.43,0000.29,0000.12,0000.17,-000.06,-000.16,27.4,00.0,0649.8,34.7
2016-10-28T01:35:00Z,0000388,01000608,-000.08,0000.03,-000.34,-000.50,-000.17,0000.33,-000.15,0000.13,-000.08,27.4,00.0,0649.8,34.7
2016-10-28T01:36:00Z,0000388,01000608,0000.60,0000.26,-000.16,0000.08,0000.41,0000.31,0000.33,0000.12,-000.00,27.4,00.0,0649.8,34.7
2016-10-28T01:37:00Z,0000388,01000608,-000.12,-000.68,-000.25,0000.61,0000.36,-000.17,-000.05,-000.16,0000.12,27.4,00.0,0649.8,34.7
2016-10-28T01:38:00Z,0000388,01000608,0000.42,-000.01,-000.26,0000.30,-000.13,0000.24,-000.05,0000.08,0000.22,27.4,00.0,0649.8,34.7
2016-10-28T01:39:00Z,0000388,01000608,-000.22,-000.88,0000.01,-000.08,0000.66,0000.01,0000.10,-000.08,-000.07,27.4,00.0,0649.8,34.7
2016-10-28T01:40:00Z,0000388,01000608,0001.24,-000.79,-000.14,0000.57,0000.00,0000.40,0000.14,0000.14,-000.02,27.4,00.0,0649.8,34.7
2016-10-28T01:41:00Z,0000388,01000608,0000.73,-000.08,-000.45,-000.50,-000.01,0000.34,-000.22,-000.03,0000.07,27.4,00.0,0649.8,34.7
2016-10-28T01:42:00Z,0000388,01000608,0000.69,0000.43,0000.52,-000.43,0000.21,0000.21,-000.02,-000.03,-000.24,27.4,00.0,0649.8,34.7
2016-10-28T01:43:00Z,0000388,01000608,-000.50,0000.49,0000.10,-000.24,0000.22,0000.21,0000.02,0000.07,-000.09,27.3,00.0,0649.8,34.7
2016-10-28T01:44:00Z,0000388,01000608,-000.65,0000.78,-000.27,-000.08,0000.29,0000.33,0000.17,-000.01,0000.47,27.3,00.0,0649.8,34.7
2016-10-28T01:45:00Z,0000388,01000608,0000.85,0000.06,-000.44,-000.50,-000.35,-000.36,0000.19,0000.14,-000.06,27.3,00.0,0649.8,34.7
2016-10-28T01:46:00Z,0000388,01000608,0000.28,0000.45,0000.05,0000.32,-000.08,0000.49,-000.08,-000.01,-000.04,27.3,00.0,0649.8,34.7
2016-10-28T01:47:00Z,0000388,01000608,-000.12,0000.22,-000.17,-000.02,0000.49,0000.17,0000.05,-000.01,0000.26,27.3,00.0,0649.8,34.7
2016-10-28T01:48:00Z,0000388,01000608,0000.89,0000.26,-000.20,0000.04,-000.13,-000.10,0000.02,0000.00,-000.28,27.3,00.0,0649.9,34.7
2016-10-28T01:49:00Z,0000388,01000608,0000.35,0000.11,-000.20,-000.42,-000.05,-000.02,-000.14,0000.07,-000.10,27.3,00.0,0649.9,34.7
2016-10-28T01:50:00Z,0000388,01000608,0000.15,-000.12,0000.01,-000.32,0000.43,-000.28,0000.10,0000.01,0000.00,27.3,00.0,0649.9,34.7
2016-10-28T01:51:00Z,0000388,01000608,-000.08,-000.54,-000.09,-000.38,0000.04,0000.27,0000.09,-000.01,0000.30,27.3,00.0,0649.9,34.7
2016-10-28T01:52:00Z,0000388,01000608,0000.51,-000.08,0000.25,0000.17,0000.15,0000.28,-000.01,-000.06,-000.04,27.3,00.0,0649.9,34.7
2016-10-28T01:53:00Z,0000388,01000608,-000.62,0000.33,0000.18,-000.18,-000.07,0000.12,-000.06,0000.15,-000.03,27.2,00.0,0649.9,34.7
2016-10-28T01:54:00Z,0000388,01000608,0000.68,0000.07,-000.23,0000.19,0000.23,-000.17,0000.07,0000.10,0000.22,27.2,00.0,0649.9,34.7
2016-10-28T01:55:00Z,0000388,01000608,0000.84,0000.51,0000.38,0000.32,-000.09,0000.12,0000.21,-000.02,-000.11,27.2,00.0,0649.9,34.7
2016-10-28T01:56:00Z,0000388,01000608,0001.10,0000.61,0000.44,0000.18,0000.05,0000.17,0002.70,0002.63,0002.13,27.2,00.0,0649.9,34.6
2016-10-28T01:57:00Z,0000388,41000608,,,,,,,,,,27.2,00.0,0649.8,34.6
2016-10-28T01:58:00Z,0000388,61000608,,,,,,,,,,27.1,00.0,0648.9,34.6
2016-10-28T01:59:00Z,0000388,21000608,,,,,,,,,,27.1,00.0,0648.9,34.6
2016-10-28T02:00:00Z,0000388,21000608,,,,,,,,,,27.1,00.0,0648.9,34.6
2016-10-28T02:01:00Z,0000388,21000608,,,,,,,,,,27.1,00.0,0648.9,34.6
2016-10-28T02:02:00Z,0000388,21000608,,,,,,,,,,27.1,00.0,0648.9,34.6
2016-10-28T02:03:00Z,0000388,61000608,,,,,,,,,,27.1,00.0,0648.9,34.6
2016-10-28T02:04:00Z,0000388,41000608,0000.17,-000.08,0000.49,-000.19,-000.00,-000.21,0000.08,-000.16,-000.11,27.1,00.0,0649.8,34.6
2016-10-28T02:05:00Z,0000388,01000608,0000.02,-000.42,0000.12,-001.23,-000.10,0000.07,0000.10,0000.35,0000.14,27.1,00.0,0649.9,34.6
2016-10-28T02:06:00Z,0000388,01000608,-000.03,0000.14,0000.25,0000.05,-000.43,0000.01,-000.05,-000.11,0000.19,27.1,00.0,0649.9,34.6
2016-10-28T02:07:00Z,0000388,01000608,0000.06,-000.10,0000.41,-000.29,-000.19,0000.31,0000.09,0000.15,-000.21,27.1,00.0,0649.9,34.6
2016-10-28T02:08:00Z,0000388,01000608,-000.26,-000.34,0000.02,-000.01,0000.36,-000.36,-000.09,0000.02,-000.02,27.1,00.0,0649.9,34.6
2016-10-28T02:09:00Z,0000388,01000608,-000.49,-000.21,-000.23,-000.17,-000.28,0000.01,0000.08,-000.04,0000.17,27.1,00.0,0649.9,34.6
2016-10-28T02:10:00Z,0000388,01000608,-000.95,0000.26,0000.41,-000.70,0000.17,-000.37,0000.12,0000.01,-000.17,27.0,00.0,0649.9,34.6
2016-10-28T02:11:00Z,0000388,01000608,0001.11,0000.17,0000.06,-000.01,-000.95,-000.24,-000.03,0000.04,0000.02,27.0,00.0,0649.9,34.6
2016-10-28T02:12:00Z,0000388,01000608,0000.04,0000.18,0000.26,-000.23,0000.20,-000.07,-000.08,-000.04,0000.20,27.0,00.0,0649.9,34.6
2016-10-28T02:13:00Z,0000388,01000608,0000.24,-000.05,-000.43,0000.44,0000.14,-000.06,0000.14,0000.15,0000.08,27.0,00.0,0649.9,34.6
2016-10-28T02:14:00Z,0000388,01000608,0000.36,-000.13,0000.20,-000.39,0000.14,0000.29,0000.04,0000.05,-000.30,27.0,00.0,0649.9,34.6
2016-10-28T02:15:00Z,0000388,01000608,0009.51,0007.27,0004.89,0001.06,0001.32,0000.65,0032.09,0029.30,0024.25,27.0,00.0,0650.0,34.6
2016-10-28T02:16:00Z,0000388,01000608,0005.66,0003.84,0002.11,0001.02,0000.77,0000.52,0023.24,0021.20,0017.94,27.0,00.0,0650.0,34.6
2016-10-28T02:17:00Z,0000388,01000608,0001.54,0000.37,0000.39,0000.69,-000.11,0000.23,0002.47,0002.33,0001.59,27.0,00.0,0649.9,34.6
2016-10-28T02:18:00Z,0000388,01000608,0001.21,0000.47,0000.52,-000.51,0000.40,0000.27,0002.94,0002.79,0002.33,27.0,00.0,0649.9,34.6
2016-10-28T02:19:00Z,0000388,01000608,0001.70,0000.59,-000.14,-000.15,-000.05,-000.40,0002.41,0002.19,0001.81,26.9,00.0,0649.9,34.6
2016-10-28T02:20:00Z,0000388,01000608,0000.91,0000.39,-000.10,0000.62,-000.08,-000.24,0001.89,0001.64,0001.36,26.9,00.0,0649.9,34.6
2016-10-28T02:21:00Z,0000388,01000608,0000.40,0000.35,0000.31,0000.68,0000.12,0000.17,0000.21,0000.28,0000.37,26.9,00.0,0649.9,34.6
2016-10-28T02:22:00Z,0000388,01000608,-000.40,0000.33,0000.20,0000.54,0000.08,-000.17,0000.34,0000.26,0000.23,26.9,00.0,0650.0,34.6
2016-10-28T02:23:00Z,0000388,01000608,0000.55,-000.19,-000.05,0000.00,0000.07,0000.36,0000.25,0000.23,0000.14,26.9,00.0,0650.0,34.6
2016-10-28T02:24:00Z,0000388,01000608,0000.24,0000.13,0000.40,0000.09,0000.46,0000.19,0000.07,0000.02,0000.13,26.9,00.0,0650.0,34.6
2016-10-28T02:25:00Z,0000388,01000608,0000.07,0000.93,0000.28,-000.50,0000.15,0000.26,0000.07,0000.10,-000.13,26.9,00.0,0650.0,34.6
2016-10-28T02:26:00Z,0000388,01000608,0001.03,-000.04,-000.32,-000.24,0000.27,-000.22,0000.14,0000.24,0000.08,26.9,00.0,0650.0,34.6
2016-10-28T02:27:00Z,0000388,01000608,-000.05,-000.10,-000.29,0000.12,0000.05,-000.19,-000.05,-000.12,-000.28,26.9,00.0,0650.0,34.6
2016-10-28T02:28:00Z,0000388,01000608,0000.84,0000.16,0000.06,-000.07,0000.49,0000.47,0000.11,0000.05,0000.32,26.9,00.0,0650.0,34.6
2016-10-28T02:29:00Z,0000388,01000608,-000.07,0000.88,-000.10,0000.39,0000.19,-000.01,0000.11,0000.06,0000.00,26.9,00.0,0650.0,34.6
2016-10-28T02:30:00Z,0000388,01000608,0000.04,-000.19,-000.15,-000.63,-000.14,-000.18,-000.18,-000.00,0000.24,26.8,00.0,0650.0,34.6
2016-10-28T02:31:00Z,0000388,01000608,-000.54,0000.25,-000.15,0000.11,-000.22,-000.31,0000.34,0000.07,0000.21,26.9,00.0,0650.0,34.7
2016-10-28T02:32:00Z,0000388,01000608,-000.22,-000.24,0000.30,-000.26,0000.13,0000.09,0000.15,0000.22,-000.34,26.9,00.0,0649.9,34.7
2016-10-28T02:33:00Z,0000388,01000608,0000.12,-000.03,0000.05,-000.61,-000.26,0000.07,0000.43,0000.52,0000.61,26.9,00.0,0650.0,34.7
2016-10-28T02:34:00Z,0000388,01000608,0000.54,0000.41,0000.31,-000.05,0000.31,0000.38,0000.35,0000.28,0000.45,26.9,00.0,0650.0,34.7
2016-10-28T02:35:00Z,0000388,01000608,-000.30,0000.10,-000.05,0000.05,0000.19,0000.15,0000.11,-000.07,-000.18,27.0,00.0,0650.0,34.7
2016-10-28T02:36:00Z,0000388,01000608,-000.23,-000.41,-000.08,0000.14,0000.04,0000.02,-000.02,0000.01,0000.15,27.0,00.0,0650.0,34.7
2016-10-28T02:37:00Z,0000388,01000608,0000.56,0000.24,0000.12,-000.05,-000.40,-000.14,-000.01,0000.27,-000.30,27.0,00.0,0650.0,34.7
2016-10-28T02:38:00Z,0000388,01000608,0000.20,0000.42,-000.42,-000.14,0000.43,-000.07,0000.06,-000.09,0000.40,27.0,00.0,0650.0,34.7
2016-10-28T02:39:00Z,0000388,01000608,0000.31,0000.25,0000.14,-000.21,0000.32,0000.11,0000.07,0000.01,-000.09,27.0,00.0,0650.0,34.7
2016-10-28T02:40:00Z,0000388,01000608,-000.36,-000.10,-000.14,0000.29,-000.05,0000.01,-000.07,0000.02,0000.04,27.0,00.0,0650.0,34.7
2016-10-28T02:41:00Z,0000388,01000608,0000.03,-000.03,0000.02,0000.21,0000.18,-000.22,0000.17,0000.10,-000.15,27.0,00.0,0650.1,34.7
2016-10-28T02:42:00Z,0000388,01000608,-000.29,-000.49,0000.27,-000.19,0000.16,0000.20,-000.05,0000.06,0000.10,26.9,00.0,0650.1,34.7
2016-10-28T02:43:00Z,0000388,01000608,-000.69,-000.33,0000.07,0000.66,-000.08,0000.12,0000.05,-000.00,-000.12,27.0,00.0,0650.1,34.7
2016-10-28T02:44:00Z,0000388,01000608,0001.01,-000.31,0000.05,0000.39,-000.13,-000.17,0000.08,-000.00,0000.10,27.0,00.0,0650.0,34.7
2016-10-28T02:45:00Z,0000388,01000608,0000.50,0000.17,-000.26,0000.13,0000.25,0000.10,0000.08,-000.07,0000.15,27.0,00.0,0650.0,34.7
2016-10-28T02:46:00Z,0000388,01000608,0001.36,0000.05,-000.06,-000.06,-000.26,-000.17,-000.09,0000.01,-000.15,27.0,00.0,0650.0,34.7
2016-10-28T02:47:00Z,0000388,01000608,0000.28,0000.39,-000.08,0000.10,0000.26,0000.04,0000.20,0000.10,0000.21,27.0,00.0,0650.0,34.7
2016-10-28T02:48:00Z,0000388,01000608,-000.38,-000.37,-000.22,-000.54,0000.20,0000.35,-000.22,0000.00,-000.05,27.0,00.0,0650.0,34.7
2016-10-28T02:49:00Z,0000388,01000608,-000.46,0000.16,0000.19,-000.80,0000.03,-000.25,0000.08,-000.11,-000.17,27.0,00.0,0650.0,34.7
2016-10-28T02:50:00Z,0000388,01000608,-000.07,0000.20,-000.38,-000.22,0000.28,0000.06,0000.17,0000.13,0000.25,27.0,00.0,0650.0,34.7
2016-10-28T02:51:00Z,0000388,01000608,0001.02,0000.52,0000.16,0000.27,-000.09,0000.37,-000.21,0000.11,0000.00,27.0,00.0,0650.1,34.7
2016-10-28T02:52:00Z,0000388,01000608,0000.42,0000.29,0000.43,-000.12,0000.13,-000.11,0000.52,0000.40,0000.26,27.0,00.0,0650.1,34.7
2016-10-28T02:53:00Z,0000388,01000608,0002.30,0001.32,0000.56,0000.01,-000.30,0000.52,0004.02,0003.56,0002.65,27.0,00.0,0650.1,34.7
2016-10-28T02:54:00Z,0000388,01000608,0006.21,0004.23,0003.39,0001.62,0000.87,0001.04,0021.24,0019.28,0016.26,27.0,00.0,0650.1,34.7
2016-10-28T02:55:00Z,0000388,01000608,0020.78,0015.34,0009.52,0002.27,0003.07,0001.92,0074.88,0068.39,0056.22,27.0,00.0,0650.1,34.7
2016-10-28T02:56:00Z,0000388,01000608,0025.25,0019.01,0011.57,0003.37,0003.99,0002.32,0097.94,0089.81,0073.94,27.0,00.0,0650.1,34.7
2016-10-28T02:57:00Z,0000388,41000608,,,,,,,,,,27.0,00.0,0650.0,34.7
2016-10-28T02:58:00Z,0000388,61000608,,,,,,,,,,26.9,00.0,0649.0,34.7
2016-10-28T02:59:00Z,0000388,21000608,,,,,,,,,,26.9,00.0,0649.0,34.7
2016-10-28T03:00:00Z,0000388,21000608,,,,,,,,,,26.9,00.0,0649.0,34.7
2016-10-28T03:01:00Z,0000388,21000608,,,,,,,,,,26.9,00.0,0649.1,34.7
2016-10-28T03:02:00Z,0000388,21000608,,,,,,,,,,26.9,00.0,0649.1,34.7
2016-10-28T03:03:00Z,0000388,61000608,,,,,,,,,,26.9,00.0,0649.1,34.7
2016-10-28T03:04:00Z,0000388,41000608,0003.95,0003.69,0003.62,0000.75,0000.95,0000.93,0020.55,0018.77,0015.76,27.0,00.0,0650.0,34.7
2016-10-28T03:05:00Z,0000388,01000608,0002.68,0002.34,0002.67,0000.71,0000.66,0000.15,0015.87,0014.65,0011.66,27.1,00.0,0650.2,34.7
2016-10-28T03:06:00Z,0000388,01000608,-000.57,0000.11,0000.87,0000.22,-000.10,0000.29,0002.51,0002.35,0002.17,27.1,00.0,0650.2,34.7
2016-10-28T03:07:00Z,0000388,01000608,-000.66,-000.46,0000.56,0000.94,0000.61,0000.05,0000.95,0000.96,0000.91,27.1,00.0,0650.2,34.7
2016-10-28T03:08:00Z,0000388,01000608,-000.78,0000.41,0000.51,0000.14,0000.24,0000.39,0000.31,0000.34,-000.13,27.1,00.0,0650.2,34.7
2016-10-28T03:09:00Z,0000388,01000608,-000.27,0000.36,0000.27,0000.60,0000.51,0000.05,0000.21,0000.04,0000.80,27.1,00.0,0650.2,34.7
2016-10-28T03:10:00Z,0000388,01000608,-001.32,0000.48,0000.06,-000.41,0000.32,0000.54,0000.46,0000.36,-000.45,27.1,00.0,0650.2,34.7
2016-10-28T03:11:00Z,0000388,01000608,0000.23,0000.78,0000.31,-000.08,-000.11,0000.20,0000.16,0000.09,0000.52,27.1,00.0,0650.2,34.7